WFL67 LPPT-EGPH

Flight info

Callsign WFL67
Flight time N/A
Altitude 40000
Route IXIDA DCT DIVUT DCT PINEK DCT ADVAT/M080F400 T290 GELPO DCT JABEX/N0457F400 DCT BIBLA DCT KOMAG DCT ROTEV DCT GOTNA DCT BLACA P600 TUNSO
Aircraft A333/H-SDE3GHIJ2J3J5M1RVWXY/LB2D1

Departure

Time N/A
Airport Lisbon Humberto Delgado Airport (LPPT)

Arrival

Time 2026-04-22 13:57
Airport Edinburgh Airport (EGPH)
Time Latitude Longitude Altitude Speed Heading
2026-04-22 13:28 55.23269 -4.43318 18864 ft 393 kts 51°
2026-04-22 13:28 55.25005 -4.39651 18320 ft 389 kts 51°
2026-04-22 13:29 55.26728 -4.36009 17792 ft 385 kts 52°
2026-04-22 13:29 55.28428 -4.32407 17248 ft 382 kts 52°
2026-04-22 13:29 55.30114 -4.28833 16708 ft 378 kts 52°
2026-04-22 13:29 55.31787 -4.25283 16170 ft 374 kts 52°
2026-04-22 13:30 55.33436 -4.21774 15647 ft 371 kts 52°
2026-04-22 13:30 55.35068 -4.18297 15114 ft 367 kts 52°
2026-04-22 13:30 55.36683 -4.14850 14601 ft 364 kts 52°
2026-04-22 13:30 55.38288 -4.11429 14084 ft 360 kts 53°
2026-04-22 13:31 55.39872 -4.08036 13587 ft 356 kts 53°
2026-04-22 13:31 55.41439 -4.04675 13059 ft 354 kts 53°
2026-04-22 13:31 55.42976 -4.01377 12563 ft 351 kts 53°
2026-04-22 13:31 55.44516 -3.98074 12074 ft 347 kts 52°
2026-04-22 13:32 55.46204 -3.95155 11783 ft 330 kts 40°
2026-04-22 13:32 55.48107 -3.93148 11431 ft 311 kts 26°
2026-04-22 13:32 55.50106 -3.91881 10955 ft 300 kts 20°
2026-04-22 13:32 55.52097 -3.90843 10485 ft 296 kts 18°
2026-04-22 13:33 55.54070 -3.89868 9925 ft 296 kts 18°
2026-04-22 13:33 55.56063 -3.88903 9497 ft 293 kts 18°
2026-04-22 13:33 55.57989 -3.87981 9142 ft 288 kts 18°
2026-04-22 13:33 55.59902 -3.87066 8639 ft 282 kts 18°
2026-04-22 13:34 55.61790 -3.86164 8011 ft 280 kts 18°
2026-04-22 13:34 55.63664 -3.85264 7397 ft 277 kts 18°
2026-04-22 13:34 55.65518 -3.84376 6800 ft 275 kts 18°
2026-04-22 13:34 55.67352 -3.83498 6229 ft 271 kts 18°
2026-04-22 13:35 55.69162 -3.82629 5653 ft 268 kts 18°
2026-04-22 13:35 55.70955 -3.81767 5075 ft 264 kts 18°
2026-04-22 13:35 55.72693 -3.80931 4526 ft 261 kts 18°
2026-04-22 13:35 55.74438 -3.80085 4118 ft 259 kts 18°
2026-04-22 13:36 55.76152 -3.79255 3909 ft 250 kts 18°
2026-04-22 13:36 55.77796 -3.78460 3767 ft 240 kts 18°
2026-04-22 13:36 55.79375 -3.77703 3659 ft 231 kts 17°
2026-04-22 13:36 55.80864 -3.76830 3541 ft 219 kts 32°
2026-04-22 13:37 55.81990 -3.75149 3446 ft 207 kts 51°
2026-04-22 13:37 55.82808 -3.73113 3360 ft 198 kts 59°
2026-04-22 13:37 55.83509 -3.71040 3203 ft 194 kts 60°
2026-04-22 13:37 55.84198 -3.68996 3035 ft 191 kts 60°
2026-04-22 13:38 55.84886 -3.66973 2974 ft 191 kts 59°
2026-04-22 13:38 55.86261 -3.62956 2977 ft 191 kts 59°
2026-04-22 13:38 55.86939 -3.60968 2978 ft 183 kts 59°
2026-04-22 13:39 55.87591 -3.59058 2786 ft 180 kts 59°
2026-04-22 13:39 55.88244 -3.57130 2513 ft 181 kts 59°
2026-04-22 13:39 55.88898 -3.55208 2258 ft 182 kts 59°
2026-04-22 13:39 55.89553 -3.53284 2001 ft 181 kts 59°
2026-04-22 13:40 55.90192 -3.51401 1778 ft 172 kts 59°
2026-04-22 13:40 55.90784 -3.49659 1538 ft 161 kts 59°
2026-04-22 13:40 55.91346 -3.48011 1334 ft 150 kts 59°
2026-04-22 13:40 55.91868 -3.46467 1144 ft 140 kts 59°
2026-04-22 13:41 55.92354 -3.45037 963 ft 128 kts 59°
2026-04-22 13:41 55.92793 -3.43740 792 ft 116 kts 58°
2026-04-22 13:41 55.93205 -3.42537 647 ft 112 kts 58°
2026-04-22 13:41 55.93617 -3.41349 473 ft 113 kts 58°
2026-04-22 13:42 55.94017 -3.40154 320 ft 113 kts 58°
2026-04-22 13:42 55.94430 -3.38927 181 ft 115 kts 59°
2026-04-22 13:42 55.94834 -3.37749 126 ft 104 kts 64°
2026-04-22 13:42 55.95245 -3.36519 497 ft 131 kts 60°
2026-04-22 13:43 55.95724 -3.35029 1471 ft 145 kts 60°
2026-04-22 13:43 55.96268 -3.33374 2396 ft 161 kts 59°
2026-04-22 13:43 55.96850 -3.31667 3180 ft 168 kts 59°
2026-04-22 13:43 55.97494 -3.29773 3635 ft 184 kts 60°
2026-04-22 13:44 55.98150 -3.27780 3478 ft 191 kts 66°
2026-04-22 13:44 55.98324 -3.25449 3173 ft 194 kts 101°
2026-04-22 13:44 55.97640 -3.23406 3006 ft 196 kts 138°
2026-04-22 13:44 55.96373 -3.22509 2989 ft 202 kts 170°
2026-04-22 13:45 55.94976 -3.22447 2991 ft 205 kts 178°
2026-04-22 13:45 55.93550 -3.22545 2988 ft 205 kts 179°
2026-04-22 13:45 55.92126 -3.22790 2984 ft 208 kts 193°
2026-04-22 13:45 55.90890 -3.24155 2993 ft 211 kts 222°
2026-04-22 13:46 55.89906 -3.26111 2994 ft 213 kts 229°
2026-04-22 13:46 55.88963 -3.28157 2992 ft 214 kts 229°
2026-04-22 13:46 55.88023 -3.30213 2990 ft 214 kts 229°
2026-04-22 13:46 55.87086 -3.32266 2991 ft 213 kts 229°
2026-04-22 13:47 55.86147 -3.34323 2989 ft 213 kts 229°
2026-04-22 13:47 55.85208 -3.36378 2988 ft 214 kts 229°
2026-04-22 13:47 55.84283 -3.38404 2987 ft 214 kts 229°
2026-04-22 13:47 55.83349 -3.40450 2987 ft 212 kts 229°
2026-04-22 13:48 55.82418 -3.42497 2990 ft 213 kts 231°
2026-04-22 13:48 55.81618 -3.44730 2989 ft 214 kts 240°
2026-04-22 13:48 55.80910 -3.47067 2987 ft 214 kts 241°
2026-04-22 13:48 55.80210 -3.49409 2981 ft 214 kts 241°
2026-04-22 13:49 55.79515 -3.51748 2980 ft 214 kts 241°
2026-04-22 13:49 55.78822 -3.54086 2979 ft 214 kts 241°
2026-04-22 13:49 55.78124 -3.56434 2981 ft 214 kts 241°
2026-04-22 13:49 55.77428 -3.58776 2984 ft 214 kts 241°
2026-04-22 13:50 55.76755 -3.61133 2970 ft 214 kts 248°
2026-04-22 13:50 55.76624 -3.63727 2970 ft 213 kts 285°
2026-04-22 13:50 55.77330 -3.65952 2968 ft 206 kts 321°
2026-04-22 13:50 55.78540 -3.67133 2974 ft 201 kts 341°
2026-04-22 13:51 55.79804 -3.68276 2975 ft 204 kts 334°
2026-04-22 13:51 55.81059 -3.69471 2967 ft 203 kts 341°
2026-04-22 13:51 55.82418 -3.69689 2974 ft 195 kts 15°
2026-04-22 13:51 55.83670 -3.68810 2971 ft 192 kts 34°
2026-04-22 13:52 55.84677 -3.67278 2972 ft 190 kts 51°
2026-04-22 13:52 55.85442 -3.65355 2972 ft 190 kts 59°
2026-04-22 13:52 55.86124 -3.63344 2985 ft 185 kts 60°
2026-04-22 13:52 55.86755 -3.61482 2988 ft 171 kts 59°
2026-04-22 13:53 55.87350 -3.59735 2969 ft 159 kts 59°
2026-04-22 13:53 55.87924 -3.58060 2983 ft 155 kts 59°
2026-04-22 13:53 55.88477 -3.56443 2989 ft 153 kts 60°
2026-04-22 13:53 55.89041 -3.54796 2792 ft 160 kts 60°
2026-04-22 13:54 55.89636 -3.53043 2311 ft 170 kts 59°
2026-04-22 13:54 55.90242 -3.51241 1896 ft 167 kts 59°
2026-04-22 13:54 55.90830 -3.49509 1601 ft 160 kts 59°
2026-04-22 13:54 55.91405 -3.47842 1279 ft 154 kts 57°
2026-04-22 13:55 55.91957 -3.46272 1038 ft 143 kts 58°
2026-04-22 13:55 55.92441 -3.44829 876 ft 128 kts 59°
2026-04-22 13:55 55.92869 -3.43534 693 ft 117 kts 60°
2026-04-22 13:55 55.93274 -3.42335 554 ft 111 kts 58°
2026-04-22 13:56 55.93678 -3.41148 408 ft 113 kts 59°
2026-04-22 13:56 55.94086 -3.39941 282 ft 114 kts 58°
2026-04-22 13:56 55.94498 -3.38726 151 ft 114 kts 58°
2026-04-22 13:56 55.94844 -3.37709 114 ft 56 kts 59°
2026-04-22 13:57 55.95025 -3.37174 112 ft 47 kts 59°
2026-04-22 13:57 55.95183 -3.36710 114 ft 41 kts 58°
2026-04-22 13:57 55.95327 -3.36285 110 ft 39 kts 59°
2026-04-22 13:57 55.95458 -3.35899 115 ft 35 kts 59°
2026-04-22 13:58 55.95554 -3.35608 113 ft 21 kts 64°
2026-04-22 13:58 55.95517 -3.35463 115 ft 13 kts 144°
2026-04-22 13:58 55.95444 -3.35417 120 ft 10 kts 193°
2026-04-22 13:58 55.95395 -3.35514 119 ft 12 kts 240°
2026-04-22 13:59 55.95347 -3.35656 116 ft 15 kts 238°
2026-04-22 13:59 55.95287 -3.35827 119 ft 18 kts 239°
2026-04-22 13:59 55.95215 -3.35984 120 ft 14 kts 189°
2026-04-22 13:59 55.95134 -3.35902 116 ft 14 kts 129°
2026-04-22 14:00 55.95121 -3.35869 120 ft 0 kts 123°
2026-04-22 14:00 55.95121 -3.35868 119 ft 0 kts 123°
2026-04-22 14:00 55.95109 -3.35833 116 ft 9 kts 120°
2026-04-22 14:00 55.95056 -3.35793 120 ft 9 kts 195°
2026-04-22 14:01 55.94993 -3.35855 118 ft 11 kts 219°
2026-04-22 14:01 55.94962 -3.35964 117 ft 6 kts 254°
2026-04-22 14:01 55.94957 -3.35999 120 ft 0 kts 254°